Weather History for KAUH - March, 2014

Change the Weather History Date:

Wednesday, March 12, 2014

  Actual Average Record
Temperature  
Mean Temperature 40 °F -  
Max Temperature 57 °F 49 °F 79 °F (1972)
Min Temperature 23 °F 26 °F -7 °F (1998)
Degree Days  
Heating Degree Days 25    
Moisture  
Dew Point 22 °F    
Average Humidity 60    
Maximum Humidity 95    
Minimum Humidity 19    
Precipitation  
Precipitation 0.00 in - - ()
Sea Level Pressure  
Sea Level Pressure 30.14 in    
Wind  
Wind Speed 12 mph (WNW)    
Max Wind Speed 25 mph    
Max Gust Speed 36 mph    
Visibility 10 miles    
Events      
Averages and records for this station are not official NWS values.
T = Trace of Precipitation, MM = Missing Value Source: NWS Daily Summary

Daily Weather History Graph

Daily Weather History Graph

Search for Another Location

Airport or City:

Trip Planner

Search our weather history database for the weather conditions in past years. The results will help you decide how hot, cold, wet, or windy it might be!

Date:

Astronomy

Mar. 12, 2014 Rise Set
Actual Time 7:48 AM CDT 7:35 PM CDT
Civil Twilight 7:21 AM CDT 8:02 PM CDT
Nautical Twilight 6:49 AM CDT 8:34 PM CDT
Astronomical Twilight 6:17 AM CDT 9:06 PM CDT
Moon 4:06 PM CDT (3/12) 5:22 AM CDT (3/12)
Length of Visible Light 12h 41m
Length of Day
11h 46m
Waxing Gibbous, 85% of the Moon is Illuminated
Mar 12
Waxing Gibbous
Mar 16
Full
Mar 23
Last Quarter
Mar 30
New
Apr 7
First Quarter

Hourly Weather History & Observations

Time (CDT) Temp. Windchill Dew Point Humidity Pressure Visibility Wind Dir Wind Speed Gust Speed Precip Events Conditions
12:15 AM 32.9 °F 23.7 °F 30.4 °F 90% 30.16 in 10.0 mi NNW 12.7 mph - N/A   Clear
12:35 AM 31.5 °F 23.5 °F 29.3 °F 92% 30.16 in 10.0 mi NNW 9.2 mph - N/A   Clear
12:55 AM 30.7 °F 22.0 °F 28.4 °F 91% 30.16 in 10.0 mi NNW 10.4 mph - N/A   Clear
1:15 AM 30.7 °F 21.4 °F 28.8 °F 92% 30.17 in 10.0 mi NNW 11.5 mph - N/A   Scattered Clouds
1:35 AM 29.7 °F 21.3 °F 27.3 °F 91% 30.16 in 10.0 mi NW 9.2 mph - N/A   Scattered Clouds
1:55 AM 27.9 °F 19.1 °F 26.1 °F 93% 30.16 in 10.0 mi NW 9.2 mph - N/A   Clear
2:15 AM 27.0 °F 18.0 °F 25.2 °F 93% 30.18 in 10.0 mi NW 9.2 mph - N/A   Clear
2:35 AM 27.9 °F 19.8 °F 26.1 °F 93% 30.18 in 10.0 mi NW 8.1 mph - N/A   Clear
2:55 AM 27.0 °F 18.7 °F 25.3 °F 94% 30.18 in 10.0 mi NW 8.1 mph - N/A   Clear
3:15 AM 26.6 °F 20.0 °F 25.0 °F 94% 30.18 in 10.0 mi WNW 5.8 mph - N/A   Clear
3:35 AM 25.3 °F 16.7 °F 23.9 °F 94% 30.18 in 10.0 mi WNW 8.1 mph - N/A   Clear
3:55 AM 25.7 °F 16.4 °F 24.4 °F 95% 30.18 in 10.0 mi WNW 9.2 mph - N/A   Clear
4:15 AM 25.3 °F 17.6 °F 23.9 °F 94% 30.17 in 10.0 mi WNW 6.9 mph - N/A   Clear
4:35 AM 25.7 °F 17.1 °F 24.4 °F 95% 30.17 in 10.0 mi WNW 8.1 mph - N/A   Clear
4:55 AM 26.4 °F 17.3 °F 25.2 °F 95% 30.17 in 10.0 mi WNW 9.2 mph - N/A   Scattered Clouds
5:15 AM 25.7 °F 20.1 °F 24.4 °F 95% 30.16 in 10.0 mi WNW 4.6 mph - N/A   Mostly Cloudy
5:35 AM 27.5 °F 20.2 °F 26.2 °F 95% 30.17 in 10.0 mi WNW 6.9 mph - N/A   Overcast
5:55 AM 28.6 °F 22.4 °F 27.1 °F 94% 30.17 in 10.0 mi West 5.8 mph - N/A   Overcast
6:15 AM 28.2 °F 20.2 °F 26.6 °F 94% 30.18 in 10.0 mi West 8.1 mph - N/A   Mostly Cloudy
6:35 AM 26.8 °F 20.2 °F 25.0 °F 93% 30.18 in 10.0 mi WNW 5.8 mph - N/A   Clear
6:55 AM 25.5 °F 17.8 °F 23.9 °F 94% 30.18 in 10.0 mi WNW 6.9 mph - N/A   Clear
7:15 AM 24.3 °F 16.3 °F 22.8 °F 94% 30.18 in 10.0 mi WNW 6.9 mph - N/A   Clear
7:35 AM 23.0 °F 14.7 °F 21.7 °F 95% 30.18 in 10.0 mi WNW 6.9 mph - N/A   Clear
7:55 AM 23.9 °F 15.8 °F 22.6 °F 95% 30.18 in 10.0 mi WNW 6.9 mph - N/A   Clear
8:15 AM 24.8 °F 16.9 °F 23.4 °F 94% 30.18 in 10.0 mi WNW 6.9 mph - N/A   Clear
8:35 AM 27.3 °F 20.9 °F 25.5 °F 93% 30.19 in 10.0 mi WNW 5.8 mph - N/A   Clear
8:55 AM 30.4 °F 22.9 °F 28.0 °F 91% 30.19 in 10.0 mi WNW 8.1 mph - N/A   Clear
9:15 AM 32.2 °F 23.8 °F 29.7 °F 90% 30.19 in 10.0 mi WNW 10.4 mph - N/A   Clear
9:35 AM 34.7 °F 25.9 °F 31.1 °F 87% 30.19 in 10.0 mi WNW 12.7 mph - N/A   Clear
9:55 AM 36.7 °F 27.6 °F 32.0 °F 83% 30.19 in 10.0 mi WNW 15.0 mph - N/A   Clear
10:15 AM 39.2 °F 30.2 °F 32.7 °F 78% 30.19 in 10.0 mi WNW 17.3 mph - N/A   Clear
10:35 AM 41.5 °F 33.2 °F 34.0 °F 75% 30.19 in 10.0 mi WNW 17.3 mph 21.9 mph N/A   Clear
10:55 AM 43.5 °F 35.2 °F 32.7 °F 66% 30.19 in 10.0 mi NW 19.6 mph - N/A   Clear
11:15 AM 45.0 °F 37.4 °F 32.0 °F 60% 30.19 in 10.0 mi NW 18.4 mph 21.9 mph N/A   Clear
11:35 AM 46.6 °F - 31.5 °F 56% 30.19 in 10.0 mi NW 18.4 mph 23.0 mph N/A   Clear
11:55 AM 48.0 °F - 28.6 °F 47% 30.19 in 10.0 mi NW 21.9 mph 27.6 mph N/A   Clear
12:15 PM 50.0 °F - 25.3 °F 38% 30.18 in 10.0 mi NW 21.9 mph 29.9 mph N/A   Clear
12:35 PM 50.4 °F - 23.2 °F 35% 30.18 in 10.0 mi NW 25.3 mph 29.9 mph N/A   Clear
1:15 PM 52.2 °F - 23.2 °F 32% 30.17 in 10.0 mi NW 21.9 mph 32.2 mph N/A   Clear
1:35 PM 53.1 °F - 22.8 °F 31% 30.17 in 10.0 mi NNW 25.3 mph 35.7 mph N/A   Scattered Clouds
1:55 PM 53.8 °F - 22.8 °F 30% 30.16 in 10.0 mi NW 23.0 mph 31.1 mph N/A   Scattered Clouds
2:15 PM 54.1 °F - 21.6 °F 28% 30.15 in 10.0 mi NNW 25.3 mph 34.5 mph N/A   Scattered Clouds
2:35 PM 54.3 °F - 21.4 °F 28% 30.13 in 10.0 mi NNW 23.0 mph 33.4 mph N/A   Scattered Clouds
2:55 PM 54.9 °F - 21.4 °F 27% 30.12 in 10.0 mi NW 18.4 mph 28.8 mph N/A   Scattered Clouds
3:15 PM 55.8 °F - 21.6 °F 27% 30.12 in 10.0 mi NNW 20.7 mph 28.8 mph N/A   Scattered Clouds
3:35 PM 55.9 °F - 21.6 °F 26% 30.11 in 10.0 mi NW 21.9 mph 32.2 mph N/A   Scattered Clouds
3:55 PM 56.7 °F - 21.0 °F 25% 30.11 in 10.0 mi NW 24.2 mph 31.1 mph N/A   Clear
4:15 PM 56.8 °F - 21.7 °F 26% 30.10 in 10.0 mi NW 23.0 mph 29.9 mph N/A   Clear
4:35 PM 57.0 °F - 21.9 °F 26% 30.09 in 10.0 mi NW 20.7 mph - N/A   Clear
4:55 PM 56.8 °F - 20.3 °F 24% 30.09 in 10.0 mi NW 20.7 mph 26.5 mph N/A   Clear
5:15 PM 56.7 °F - 19.4 °F 23% 30.08 in 10.0 mi WNW 21.9 mph 27.6 mph N/A   Clear
5:35 PM 57.0 °F - 17.4 °F 21% 30.08 in 10.0 mi WNW 17.3 mph - N/A   Clear
5:55 PM 57.2 °F - 15.8 °F 20% 30.08 in 10.0 mi WNW 18.4 mph 24.2 mph N/A   Clear
6:15 PM 56.8 °F - 14.9 °F 19% 30.07 in 10.0 mi WNW 15.0 mph 24.2 mph N/A   Clear
6:35 PM 56.3 °F - 14.2 °F 19% 30.07 in 10.0 mi WNW 16.1 mph - N/A   Clear
6:55 PM 55.0 °F - 14.4 °F 20% 30.06 in 10.0 mi WNW 15.0 mph 19.6 mph N/A   Clear
7:15 PM 52.0 °F - 14.9 °F 23% 30.06 in 10.0 mi NW 8.1 mph - N/A   Clear
7:35 PM 46.2 °F 42.2 °F 13.6 °F 27% 30.06 in 10.0 mi WNW 8.1 mph - N/A   Clear
7:55 PM 42.3 °F 37.9 °F 12.9 °F 30% 30.06 in 10.0 mi WNW 6.9 mph - N/A   Clear
8:15 PM 39.6 °F 35.4 °F 11.8 °F 32% 30.07 in 10.0 mi West 5.8 mph - N/A   Clear
8:35 PM 40.3 °F 36.3 °F 12.2 °F 32% 30.07 in 10.0 mi West 5.8 mph - N/A   Clear
8:55 PM 37.2 °F 32.6 °F 11.5 °F 35% 30.08 in 10.0 mi WNW 5.8 mph - N/A   Clear
9:15 PM 37.0 °F 33.3 °F 12.2 °F 36% 30.08 in 10.0 mi WNW 4.6 mph - N/A   Clear
9:35 PM 36.1 °F 31.4 °F 12.0 °F 37% 30.08 in 10.0 mi West 5.8 mph - N/A   Clear
9:55 PM 34.7 °F 28.8 °F 12.0 °F 39% 30.08 in 10.0 mi West 6.9 mph - N/A   Clear
10:15 PM 33.1 °F 26.1 °F 12.4 °F 42% 30.08 in 10.0 mi WSW 8.1 mph - N/A   Clear
10:35 PM 32.4 °F 25.3 °F 12.9 °F 45% 30.07 in 10.0 mi West 8.1 mph - N/A   Clear
10:55 PM 32.5 °F 26.2 °F 14.4 °F 47% 30.07 in 10.0 mi West 6.9 mph - N/A   Clear
11:15 PM 32.0 °F 24.8 °F 14.0 °F 48% 30.07 in 10.0 mi West 8.1 mph - N/A   Clear
11:35 PM 31.3 °F 22.7 °F 14.0 °F 49% 30.06 in 10.0 mi West 10.4 mph - N/A   Clear
11:55 PM 32.4 °F 24.0 °F 15.3 °F 49% 30.06 in 10.0 mi West 10.4 mph - N/A   Clear